Temp
-7 -7 -7 -7 -7 -8 -7 -7 -7 -7 -8 -7 -7 -7 -6 -5 -4 -4 -4 -4 -4 -4 -4 -5 -5 -6 -6 -6 -7 -7 -7 -7 -7 -7 -7 -7 -7 -7 -7 -7 -7 -8 -8 -8 -8 -8 -8 -8 -8
-7 -7 -7 -8 -6 -7 -7 -8 -6 -7 -8 -7 -6 -6 -6 -5 -4 -4 -5 -4 -4 -4 -5 -5 -5 -6 -6 -6 -7 -7 -7 -7 -7 -7 -7 -8 -8 -8 -8 -8 -8 -8 -8 -8 -8 -8 -8 -8 -8
-7 -7 -7 -8 -7 -7 -8 -7 -9 -6 -6 -6 -6 -6 -5 -5 -4 -4 -5 -5 -5 -5 -5 -5 -5 -5 -6 -6 -6 -6 -6 -7 -7 -7 -8 -8 -7 -7 -7 -7 -7 -7 -8 -8 -8 -8 -8 -8 -8
-7 -7 -7 -8 -8 -8 -9 -8 -7 -7 -6 -6 -6 -6 -5 -5 -4 -4 -4 -5 -5 -5 -5 -5 -5 -6 -6 -6 -6 -6 -6 -6 -6 -7 -7 -7 -7 -7 -7 -7 -7 -7 -7 -7 -7 -8 -8 -8 -8
-7 -7 -7 -8 -7 -9 -8 -8 -8 -8 -7 -6 -6 -6 -6 -5 -5 -4 -4 -5 -5 -5 -5 -5 -5 -5 -5 -5 -5 -6 -6 -6 -6 -6 -6 -6 -7 -7 -7 -7 -7 -7 -8 -8 -8 -8 -8 -8 -8
-8 -7 -7 -8 -9 -9 -9 -9 -7 -7 -7 -8 -6 -6 -6 -5 -5 -5 -4 -5 -6 -5 -5 -5 -5 -5 -5 -5 -5 -6 -6 -6 -6 -6 -6 -6 -6 -7 -7 -7 -7 -7 -7 -8 -8 -8 -8 -8 -8
-8 -7 -7 -8 -8 -9 -9 -9 -8 -8 -8 -8 -7 -7 -7 -7 -6 -6 -5 -5 -6 -5 -5 -6 -5 -5 -5 -5 -6 -6 -6 -6 -6 -6 -6 -6 -7 -7 -7 -7 -8 -8 -8 -8 -8 -8 -9 -9 -9
-8 -7 -8 -9 -9 -9 -9 -9 -9 -8 -7 -8 -8 -8 -7 -7 -7 -7 -6 -6 -6 -5 -5 -5 -5 -5 -5 -6 -6 -6 -6 -6 -6 -6 -7 -7 -7 -8 -8 -8 -8 -8 -9 -9 -9 -9 -9 -9 -9
-8 -7 -8 -9 -9 -9 -9 -9 -8 -7 -9 -8 -8 -9 -7 -7 -7 -6 -6 -6 -6 -6 -5 -5 -5 -5 -5 -5 -6 -6 -6 -6 -7 -7 -7 -7 -8 -8 -8 -8 -8 -9 -9 -9 -9 -9 -9 -9 -9
-8 -7 -8 -9 -9 -9 -8 -9 -8 -8 -9 -7 -8 -8 -6 -7 -7 -6 -6 -6 -6 -6 -6 -6 -5 -5 -5 -6 -6 -6 -7 -7 -7 -7 -8 -8 -8 -8 -8 -9 -9 -9 -9 -9 -9 -9 -10 -10 -10
-8 -8 -9 -8 -10 -9 -9 -9 -9 -9 -9 -8 -8 -9 -8 -6 -6 -6 -6 -6 -6 -6 -6 -6 -5 -6 -5 -6 -6 -6 -7 -7 -7 -8 -8 -8 -8 -8 -8 -8 -8 -9 -9 -9 -9 -10 -10 -10 -10
-9 -8 -8 -9 -10 -10 -9 -10 -10 -8 -8 -9 -7 -8 -8 -6 -6 -6 -6 -6 -6 -6 -5 -6 -6 -6 -6 -6 -6 -7 -7 -7 -8 -8 -8 -8 -9 -9 -9 -9 -9 -9 -10 -10 -10 -10 -11 -11 -11
-9 -8 -8 -9 -10 -10 -9 -10 -9 -9 -9 -8 -9 -8 -8 -7 -7 -7 -7 -6 -7 -7 -7 -7 -6 -7 -6 -7 -7 -7 -8 -8 -9 -9 -9 -9 -9 -10 -10 -10 -10 -10 -10 -10 -10 -11 -11 -10 -10
-9 -9 -9 -9 -8 -10 -10 -9 -9 -9 -8 -8 -9 -7 -7 -7 -9 -9 -9 -8 -8 -7 -7 -7 -7 -7 -7 -7 -8 -8 -8 -9 -10 -10 -10 -10 -10 -10 -10 -10 -10 -11 -11 -11 -11 -11 -11 -10 -10
-7 -8 -8 -8 -8 -8 -8 -9 -10 -9 -8 -9 -9 -9 -7 -8 -9 -9 -9 -9 -10 -9 -8 -9 -8 -8 -9 -9 -9 -9 -9 -9 -10 -10 -11 -11 -11 -12 -11 -11 -11 -11 -11 -11 -11 -11 -12 -12 -11
-7 -7 -7 -8 -8 -8 -9 -7 -8 -9 -9 -10 -9 -9 -10 -9 -9 -9 -7 -7 -8 -10 -10 -9 -10 -10 -10 -10 -10 -10 -10 -10 -10 -10 -11 -11 -11 -12 -12 -12 -12 -12 -12 -11 -11 -11 -11 -12 -11
-7 -8 -8 -8 -9 -9 -8 -8 -8 -9 -9 -10 -10 -10 -10 -10 -9 -9 -8 -9 -8 -8 -10 -10 -10 -11 -11 -11 -10 -10 -10 -10 -10 -11 -11 -11 -11 -11 -11 -12 -12 -12 -12 -12 -11 -12 -12 -12 -11
-8 -8 -9 -9 -9 -9 -9 -8 -8 -9 -9 -9 -9 -9 -9 -10 -10 -9 -9 -8 -9 -9 -8 -9 -10 -11 -11 -11 -11 -11 -11 -11 -11 -11 -11 -11 -11 -11 -12 -12 -12 -12 -12 -11 -11 -11 -12 -12 -11
-8 -10 -10 -9 -9 -9 -9 -8 -8 -9 -10 -10 -10 -10 -10 -10 -10 -10 -9 -9 -7 -9 -9 -9 -9 -9 -10 -10 -10 -11 -11 -11 -11 -11 -12 -12 -11 -11 -11 -11 -11 -11 -11 -11 -11 -11 -12 -13 -12
-8 -10 -9 -9 -9 -9 -9 -9 -8 -9 -9 -10 -10 -10 -10 -9 -9 -9 -10 -9 -9 -9 -9 -9 -10 -10 -10 -10 -10 -10 -10 -11 -12 -12 -12 -11 -11 -11 -11 -11 -11 -11 -11 -11 -11 -12 -12 -13 -12
-9 -8 -8 -9 -9 -9 -9 -9 -8 -8 -9 -9 -10 -9 -9 -9 -9 -10 -10 -10 -9 -9 -9 -9 -10 -10 -10 -10 -11 -11 -11 -11 -11 -11 -11 -11 -11 -11 -11 -11 -11 -12 -12 -12 -12 -13 -13 -13 -12
-8 -8 -8 -8 -8 -9 -9 -9 -8 -8 -9 -9 -9 -9 -8 -8 -10 -10 -9 -9 -9 -9 -10 -10 -10 -10 -11 -10 -11 -12 -12 -12 -11 -11 -11 -11 -11 -11 -11 -11 -12 -12 -13 -13 -13 -13 -13 -12 -12
-8 -8 -8 -9 -9 -8 -8 -8 -8 -9 -9 -9 -9 -8 -8 -8 -9 -9 -9 -9 -9 -9 -10 -11 -11 -12 -12 -12 -12 -11 -11 -11 -11 -11 -11 -11 -11 -11 -11 -11 -13 -13 -13 -13 -13 -13 -12 -12 -12
-9 -9 -9 -8 -8 -8 -7 -8 -7 -8 -9 -9 -9 -8 -9 -9 -9 -9 -9 -10 -10 -10 -11 -11 -11 -11 -11 -10 -10 -11 -11 -11 -11 -11 -11 -11 -11 -11 -11 -11 -13 -13 -13 -13 -13 -12 -12 -12 -12
-8 -9 -9 -8 -9 -8 -9 -9 -8 -8 -9 -9 -9 -8 -9 -8 -9 -8 -9 -9 -10 -10 -10 -10 -9 -9 -9 -10 -10 -11 -11 -11 -11 -11 -11 -11 -11 -11 -11 -12 -13 -13 -13 -13 -12 -12 -12 -12 -13
-9 -9 -8 -8 -8 -10 -10 -10 -8 -9 -9 -9 -9 -9 -9 -9 -9 -8 -8 -9 -9 -9 -9 -9 -9 -9 -10 -10 -11 -11 -11 -11 -11 -11 -11 -11 -12 -12 -12 -12 -13 -13 -13 -12 -12 -12 -12 -13 -13
-10 -9 -9 -10 -9 -10 -10 -10 -10 -10 -9 -9 -9 -9 -9 -9 -9 -9 -9 -9 -9 -9 -9 -9 -10 -10 -10 -11 -11 -11 -11 -11 -11 -11 -11 -12 -12 -12 -13 -13 -13 -13 -13 -12 -12 -13 -13 -13 -14
-10 -10 -10 -10 -10 -10 -9 -10 -10 -10 -10 -10 -9 -9 -9 -10 -9 -9 -9 -9 -9 -9 -9 -10 -10 -10 -10 -11 -11 -11 -11 -11 -11 -12 -12 -12 -12 -13 -13 -13 -13 -13 -13 -13 -13 -13 -13 -14 -14
-11 -11 -10 -10 -11 -10 -9 -10 -11 -9 -9 -10 -9 -10 -10 -9 -10 -10 -9 -9 -9 -10 -10 -10 -10 -10 -10 -11 -11 -11 -11 -11 -12 -12 -12 -12 -13 -13 -13 -13 -13 -13 -13 -13 -13 -13 -13 -14 -15
-11 -11 -11 -10 -10 -11 -11 -10 -10 -9 -9 -9 -9 -10 -10 -10 -10 -10 -9 -9 -10 -11 -11 -11 -11 -11 -11 -11 -11 -11 -11 -11 -12 -12 -12 -13 -13 -13 -14 -13 -13 -13 -13 -13 -13 -13 -13 -14 -15
Height
5938 5939 5939 5940 5943 5937 5936 5938 5935 5937 5940 5943 5944 5943 5941 5940 5939 5942 5936 5936 5934 5934 5933 5932 5931 5931 5931 5932 5932 5932 5932 5932 5932 5932 5931 5930 5929 5928 5927 5926 5924 5923 5923 5922 5921 5921 5920 5919 5918
5937 5939 5939 5938 5941 5940 5938 5939 5933 5940 5938 5942 5942 5942 5941 5938 5937 5939 5936 5937 5935 5934 5933 5932 5931 5931 5931 5932 5931 5931 5929 5929 5929 5929 5929 5927 5926 5925 5924 5923 5923 5921 5921 5920 5919 5918 5917 5917 5916
5936 5937 5939 5940 5938 5936 5939 5942 5942 5939 5929 5942 5942 5941 5939 5937 5936 5938 5936 5936 5934 5933 5932 5932 5931 5931 5931 5930 5929 5928 5928 5927 5926 5926 5926 5926 5925 5924 5922 5921 5920 5919 5918 5917 5915 5914 5913 5913 5912
5934 5937 5939 5938 5934 5935 5940 5941 5937 5941 5934 5937 5939 5937 5937 5937 5936 5939 5936 5935 5932 5932 5932 5931 5930 5930 5929 5928 5927 5927 5926 5925 5925 5925 5925 5924 5923 5922 5921 5919 5918 5916 5915 5914 5913 5912 5910 5910 5909
5933 5935 5937 5936 5932 5935 5935 5936 5931 5932 5930 5934 5937 5936 5936 5934 5933 5933 5935 5936 5929 5931 5931 5930 5930 5928 5928 5927 5926 5926 5926 5925 5925 5924 5923 5922 5921 5920 5918 5917 5915 5914 5913 5912 5910 5909 5908 5907 5905
5931 5933 5936 5934 5931 5933 5931 5925 5927 5922 5919 5932 5938 5935 5932 5931 5929 5929 5930 5935 5927 5930 5929 5929 5928 5928 5928 5926 5927 5926 5925 5924 5923 5923 5922 5920 5919 5917 5916 5915 5913 5911 5910 5909 5908 5906 5905 5903 5901
5929 5932 5936 5935 5933 5934 5931 5922 5921 5918 5917 5930 5932 5935 5931 5927 5926 5926 5927 5929 5928 5928 5928 5928 5928 5927 5928 5927 5926 5925 5924 5923 5922 5921 5920 5918 5917 5916 5914 5913 5911 5909 5907 5906 5903 5901 5899 5896 5894
5928 5931 5934 5932 5930 5935 5939 5925 5929 5926 5914 5931 5925 5930 5930 5928 5925 5923 5923 5926 5926 5926 5927 5927 5926 5927 5927 5926 5925 5924 5923 5922 5921 5920 5918 5917 5915 5913 5911 5910 5907 5904 5902 5900 5897 5895 5892 5890 5887
5924 5930 5931 5928 5926 5934 5934 5929 5926 5928 5926 5917 5924 5926 5926 5924 5923 5923 5923 5925 5928 5926 5927 5926 5927 5926 5925 5924 5924 5923 5921 5920 5918 5917 5915 5913 5911 5909 5908 5905 5902 5899 5896 5893 5890 5888 5886 5883 5880
5920 5925 5928 5925 5925 5930 5931 5925 5928 5926 5922 5911 5925 5925 5926 5923 5924 5924 5923 5923 5927 5927 5925 5925 5925 5924 5923 5922 5921 5920 5918 5916 5914 5913 5911 5909 5907 5904 5901 5898 5896 5894 5891 5887 5884 5881 5879 5876 5874
5918 5923 5922 5924 5927 5929 5930 5922 5923 5924 5912 5917 5917 5925 5926 5925 5923 5924 5924 5923 5923 5926 5927 5923 5921 5921 5919 5918 5917 5916 5915 5912 5910 5909 5906 5905 5903 5900 5900 5896 5892 5888 5886 5882 5879 5877 5873 5871 5867
5915 5920 5920 5922 5926 5930 5931 5927 5923 5920 5919 5922 5918 5918 5926 5926 5920 5923 5922 5921 5920 5919 5920 5920 5919 5921 5917 5916 5914 5912 5910 5909 5906 5903 5901 5899 5896 5893 5890 5887 5885 5882 5879 5874 5872 5869 5866 5863 5858
5913 5917 5918 5919 5922 5925 5925 5923 5920 5919 5921 5925 5921 5914 5927 5922 5919 5919 5918 5919 5917 5917 5918 5917 5916 5917 5914 5913 5910 5908 5906 5904 5902 5897 5894 5894 5891 5889 5886 5883 5881 5878 5873 5870 5867 5863 5859 5854 5850
5908 5911 5915 5918 5918 5921 5923 5917 5918 5918 5920 5921 5919 5916 5919 5919 5916 5919 5918 5919 5920 5918 5918 5916 5915 5913 5911 5908 5906 5905 5903 5900 5899 5896 5892 5887 5885 5883 5879 5875 5872 5869 5865 5861 5858 5853 5849 5843 5839
5904 5905 5909 5912 5917 5918 5920 5919 5917 5919 5916 5914 5914 5914 5913 5913 5914 5919 5918 5918 5917 5918 5918 5916 5912 5910 5908 5905 5901 5899 5898 5894 5895 5894 5891 5885 5880 5876 5870 5865 5862 5859 5854 5850 5846 5841 5836 5830 5826
5904 5905 5909 5913 5914 5918 5915 5917 5917 5914 5917 5918 5913 5913 5911 5912 5916 5914 5914 5910 5914 5913 5916 5915 5912 5908 5904 5903 5901 5897 5892 5890 5888 5887 5884 5879 5875 5870 5863 5858 5853 5848 5843 5838 5833 5829 5823 5818 5813
5905 5906 5909 5911 5911 5912 5914 5916 5916 5914 5914 5919 5917 5911 5908 5906 5904 5911 5908 5913 5910 5913 5906 5910 5909 5905 5901 5899 5896 5894 5890 5886 5884 5881 5878 5873 5867 5862 5857 5852 5846 5840 5833 5827 5822 5816 5810 5805 5800
5903 5902 5905 5908 5911 5911 5913 5916 5915 5917 5918 5916 5918 5912 5909 5908 5903 5906 5907 5907 5900 5907 5904 5900 5900 5898 5894 5895 5891 5888 5885 5881 5877 5874 5868 5863 5857 5853 5848 5841 5834 5828 5821 5815 5809 5803 5797 5791 5787
5898 5896 5900 5906 5912 5910 5911 5913 5915 5915 5916 5919 5913 5911 5913 5913 5911 5910 5911 5903 5904 5908 5900 5891 5891 5885 5884 5886 5886 5884 5880 5877 5871 5866 5860 5853 5847 5840 5835 5828 5822 5815 5808 5802 5795 5790 5784 5778 5773
5895 5896 5899 5903 5907 5910 5910 5910 5912 5913 5915 5916 5908 5909 5908 5910 5910 5907 5906 5905 5901 5901 5899 5891 5892 5885 5884 5880 5879 5878 5874 5868 5862 5856 5850 5843 5838 5832 5824 5817 5811 5803 5796 5790 5783 5778 5772 5767 5761
5892 5893 5897 5900 5902 5902 5905 5905 5909 5911 5913 5904 5901 5902 5907 5908 5909 5908 5905 5901 5901 5898 5894 5888 5884 5882 5881 5876 5870 5866 5862 5857 5851 5847 5842 5835 5829 5823 5817 5809 5802 5793 5785 5778 5772 5767 5762 5757 5751
5889 5892 5895 5898 5899 5897 5899 5898 5902 5906 5909 5901 5895 5895 5900 5905 5906 5905 5903 5899 5894 5892 5887 5884 5881 5876 5870 5867 5865 5860 5854 5848 5843 5839 5834 5828 5823 5817 5810 5799 5790 5782 5775 5769 5763 5757 5753 5748 5742
5885 5888 5889 5891 5892 5894 5895 5893 5895 5900 5904 5898 5894 5891 5894 5899 5898 5895 5892 5888 5884 5880 5876 5873 5872 5870 5867 5863 5857 5851 5846 5841 5837 5833 5829 5821 5816 5809 5800 5789 5779 5773 5766 5761 5755 5750 5744 5738 5732
5881 5883 5883 5886 5887 5886 5894 5892 5891 5895 5895 5893 5894 5891 5891 5891 5893 5887 5881 5879 5874 5871 5870 5869 5867 5863 5858 5854 5848 5844 5842 5839 5833 5827 5821 5814 5806 5798 5788 5777 5770 5763 5758 5753 5749 5742 5736 5729 5722
5874 5878 5878 5881 5881 5886 5887 5885 5886 5888 5887 5888 5890 5890 5891 5888 5881 5880 5878 5876 5871 5866 5864 5863 5860 5857 5852 5848 5845 5842 5838 5834 5828 5821 5813 5805 5796 5787 5779 5769 5761 5755 5751 5747 5742 5735 5727 5719 5713
5870 5872 5874 5875 5879 5882 5881 5878 5877 5879 5882 5883 5883 5886 5886 5885 5882 5878 5876 5874 5873 5871 5866 5862 5858 5853 5849 5846 5842 5838 5833 5828 5822 5814 5806 5798 5789 5780 5771 5762 5756 5751 5745 5740 5734 5727 5719 5711 5706
5867 5864 5872 5870 5874 5873 5877 5876 5873 5873 5877 5880 5880 5879 5880 5879 5877 5875 5874 5872 5870 5867 5862 5858 5853 5849 5845 5841 5837 5833 5827 5821 5814 5806 5798 5789 5781 5772 5765 5758 5752 5746 5741 5735 5726 5719 5711 5704 5699
5857 5863 5864 5865 5867 5868 5872 5872 5869 5869 5871 5874 5875 5875 5874 5873 5873 5871 5868 5867 5864 5861 5856 5851 5847 5843 5839 5836 5832 5827 5821 5814 5807 5798 5790 5781 5773 5765 5758 5752 5746 5741 5734 5727 5720 5712 5704 5698 5692
5851 5854 5855 5859 5862 5863 5868 5869 5865 5862 5864 5867 5867 5866 5867 5867 5867 5865 5864 5862 5858 5853 5848 5844 5840 5836 5833 5830 5825 5819 5812 5805 5797 5789 5781 5773 5765 5757 5751 5745 5739 5734 5727 5720 5713 5705 5698 5692 5687
5846 5847 5851 5850 5855 5857 5859 5861 5859 5861 5856 5856 5858 5862 5860 5860 5862 5859 5858 5855 5852 5846 5840 5837 5834 5830 5826 5822 5817 5810 5804 5796 5789 5780 5772 5764 5757 5750 5744 5739 5733 5727 5720 5713 5706 5698 5690 5684 5679
Wind_Speed
7 5 3 1 1 7 2 8 3 11 7 7 6 7 4 8 10 11 14 13 9 6 7 8 10 8 6 5 5 5 5 6 7 9 11 12 12 13 13 14 14 14 14 14 15 16 17 18 19
9 6 3 3 7 6 10 26 20 9 3 3 6 6 3 11 11 12 13 13 9 6 7 6 6 6 5 6 6 7 7 9 11 12 14 15 16 16 16 16 16 16 17 17 18 19 19 20 20
12 9 6 0 9 16 22 13 4 4 9 5 4 4 8 11 13 14 11 10 10 9 7 5 4 4 5 4 5 6 7 9 11 13 15 15 15 16 16 16 17 17 17 17 17 17 17 18 17
14 10 7 6 8 13 18 20 22 7 7 4 8 10 11 11 13 12 12 13 11 10 7 7 7 7 7 5 6 7 9 10 12 13 14 15 15 16 17 16 17 17 16 16 15 15 15 16 17
15 12 11 5 10 17 23 23 12 4 6 12 9 13 14 15 17 17 14 6 12 9 8 7 5 5 6 5 7 9 9 11 13 14 15 16 16 16 16 15 14 14 14 16 17 18 19 20 21
17 16 13 9 16 20 28 33 5 28 17 20 12 14 18 20 18 16 15 1 11 6 5 5 6 7 7 7 9 9 11 12 14 15 15 15 15 15 15 16 17 18 19 21 22 23 24 25 26
19 18 13 2 8 19 29 40 41 7 10 19 20 16 18 19 17 12 9 4 7 5 6 6 6 7 8 10 11 12 14 15 15 15 15 15 16 16 17 19 20 21 22 23 25 26 26 26 27
21 20 12 6 10 18 16 25 26 21 9 9 27 21 20 12 11 4 4 1 5 6 6 5 6 7 9 11 12 14 15 15 16 16 17 17 18 19 20 22 23 25 26 24 27 27 28 29 30
23 21 13 0 20 19 13 20 25 25 25 17 19 12 15 9 7 5 4 2 3 8 6 7 7 8 10 11 13 13 14 15 16 18 18 19 20 23 23 24 25 27 28 29 29 32 32 32 34
24 23 15 3 11 18 9 11 14 21 23 18 7 9 18 5 6 9 2 2 3 4 8 8 8 9 10 11 11 13 14 16 18 19 20 21 22 23 26 27 28 30 31 32 34 35 35 35 37
26 23 16 7 8 14 4 18 21 28 22 18 7 19 19 12 2 6 5 3 7 5 4 9 11 10 13 13 15 15 16 18 19 21 22 23 25 28 26 29 31 34 34 35 35 35 37 38 40
28 26 23 11 3 16 16 26 23 23 20 28 15 4 14 13 6 10 6 5 6 9 8 10 11 7 12 13 16 17 18 20 23 25 25 26 28 32 34 38 40 41 40 40 38 38 40 42 44
26 29 27 19 14 15 20 24 25 26 26 40 11 3 16 12 12 18 17 9 8 10 12 15 16 13 16 16 18 19 22 23 25 29 32 32 33 35 36 38 40 43 44 45 44 41 43 44 48
23 32 29 28 24 20 20 26 27 30 33 29 17 9 6 9 17 23 24 23 24 17 15 16 18 19 20 22 21 21 25 27 26 27 33 38 38 39 42 44 44 45 46 43 47 50 49 51 50
21 24 33 34 30 31 21 20 15 26 26 21 23 21 21 18 16 27 27 28 26 26 19 17 19 20 20 23 26 27 28 31 30 31 33 37 41 44 48 49 50 49 51 50 51 53 52 52 52
16 12 10 10 14 14 11 13 9 12 11 19 31 22 24 22 17 29 24 19 21 16 19 17 17 19 21 20 22 28 30 32 34 34 35 37 42 45 48 51 53 53 55 53 52 54 56 55 54
11 3 3 1 3 12 12 7 11 7 11 17 26 27 24 25 23 33 33 34 37 26 13 14 16 18 21 20 27 31 32 36 39 39 39 41 45 46 47 48 51 52 53 56 56 56 56 54 54
9 9 7 11 13 12 17 13 10 10 11 20 21 21 17 27 33 36 42 42 22 30 11 13 24 23 22 16 22 30 35 42 44 43 43 44 46 45 46 47 50 52 55 55 55 56 55 54 51
18 13 14 6 9 22 24 19 13 14 11 12 25 22 28 31 32 35 32 43 33 30 31 23 18 27 21 31 30 35 38 44 46 45 43 44 44 46 48 51 52 54 56 57 60 59 56 56 50
20 18 20 17 7 13 25 31 26 17 7 16 28 31 32 27 27 32 37 41 42 37 36 29 25 24 36 35 36 38 44 46 46 43 44 45 46 50 53 54 54 58 60 61 58 54 52 44 40
26 25 22 25 18 17 20 31 18 18 18 26 37 40 33 22 25 33 34 37 34 30 31 30 29 32 34 38 43 46 48 47 44 42 42 46 50 53 57 56 58 62 57 53 50 46 38 40 42
25 21 18 28 30 30 22 24 17 9 10 35 36 34 25 25 26 26 24 28 30 26 25 26 26 32 39 41 44 46 44 41 39 42 45 49 52 53 54 59 61 53 49 44 41 38 38 40 43
24 18 24 28 34 37 32 29 23 10 13 29 35 36 29 28 34 34 40 35 30 27 25 26 29 34 39 41 41 40 36 38 42 44 48 52 52 54 57 60 49 46 42 38 37 33 40 45 40
22 21 27 26 28 32 21 30 27 20 25 32 34 36 29 29 35 46 46 36 31 26 26 28 31 36 40 42 38 33 37 38 43 47 50 49 51 52 58 50 45 42 34 35 35 41 43 41 38
22 20 25 23 26 16 8 20 18 22 29 27 31 32 29 36 38 37 34 31 32 34 34 36 39 42 41 38 30 33 36 41 44 46 48 52 53 54 53 47 43 32 30 35 39 42 42 38 35
20 21 24 22 17 11 8 20 17 20 26 31 35 33 36 35 35 29 28 30 33 35 37 39 41 39 34 30 31 35 38 41 43 47 49 51 52 50 48 39 29 29 34 38 40 43 43 37 34
22 30 16 21 19 22 16 20 27 28 34 36 39 38 34 37 35 28 27 31 34 36 37 38 36 33 32 31 34 35 39 41 44 48 49 51 49 45 40 34 32 32 32 38 44 44 41 38 34
27 23 24 20 25 30 26 15 28 32 32 37 30 33 34 34 31 29 34 36 37 37 37 35 34 32 32 32 33 37 40 42 45 48 49 48 47 41 37 35 33 34 36 42 41 43 42 37 35
32 24 32 26 23 26 32 27 24 33 37 32 30 31 34 38 33 37 39 39 37 36 35 33 30 30 32 33 36 39 42 45 48 47 48 46 45 40 36 35 34 35 38 41 41 42 41 36 33
32 30 30 33 29 29 27 28 38 41 43 40 41 38 37 34 35 36 36 36 35 33 32 32 34 34 34 34 37 40 43 47 47 47 46 44 42 36 33 33 34 36 38 41 41 40 42 37 34
Wind_Direction
204 157 129 307 95 306 344 163 295 134 81 284 340 18 58 333 1 10 355 355 321 295 290 275 267 261 263 274 272 266 270 272 275 277 276 272 270 271 267 264 261 260 264 269 273 277 280 283 284
215 177 134 102 324 340 333 337 337 324 46 118 54 48 7 4 339 355 356 354 334 337 317 280 266 252 245 248 252 261 261 264 267 270 269 268 268 268 268 271 275 276 279 280 283 285 287 289 291
220 182 182 167 312 5 359 8 39 232 179 159 322 336 353 336 332 341 344 350 334 334 315 282 271 255 243 240 248 258 267 269 269 270 273 275 278 280 282 283 285 288 289 291 292 293 294 294 294
214 187 174 38 355 357 321 310 296 6 236 271 320 335 327 320 327 328 334 338 329 318 298 276 268 265 261 263 267 270 271 275 279 283 283 286 288 290 291 293 293 295 297 298 300 301 301 299 300
205 195 177 193 10 344 299 297 234 268 215 267 327 323 327 327 323 323 325 350 301 303 297 268 247 244 249 260 269 270 281 289 290 290 293 294 298 299 301 303 303 305 303 301 301 301 301 301 301
200 194 187 146 29 324 299 296 80 151 138 295 309 324 325 316 313 313 309 347 278 291 259 236 242 255 262 275 287 291 296 296 299 299 299 302 303 305 304 303 303 303 303 304 304 303 302 301 299
201 197 184 128 37 327 306 312 320 239 111 287 299 319 336 326 314 304 284 227 250 243 236 251 278 292 308 311 310 317 319 320 312 310 308 305 302 301 301 303 303 302 301 303 304 304 305 304 301
206 194 160 97 357 347 272 291 289 288 103 339 297 334 324 302 289 308 286 219 248 250 253 277 297 310 307 318 322 321 322 320 317 312 308 305 304 304 302 303 303 304 305 308 307 305 304 305 304
202 193 173 237 17 321 316 288 307 284 268 209 266 296 301 314 317 320 311 211 195 276 291 308 314 321 327 326 323 324 326 323 318 314 312 310 308 305 304 308 309 311 312 311 309 310 311 307 303
202 192 196 241 26 289 348 329 303 304 253 168 226 280 303 312 327 310 282 270 220 280 307 302 317 325 316 317 321 322 323 320 319 318 314 310 306 306 314 313 310 309 311 311 311 312 309 307 305
199 185 189 169 25 301 327 327 320 312 303 254 153 334 297 279 229 312 295 326 301 289 295 305 309 317 312 317 318 316 319 317 312 307 308 307 307 303 300 306 312 313 311 308 309 311 311 307 303
200 186 196 151 125 284 271 269 287 300 300 300 269 349 259 291 360 333 321 330 326 306 292 282 284 291 305 312 311 318 315 313 320 321 321 325 323 320 319 316 316 313 311 306 307 307 303 298 294
206 202 209 190 185 258 275 243 257 263 277 279 325 125 266 318 354 337 328 311 309 318 316 311 310 316 313 314 318 320 321 322 328 327 327 328 324 322 321 318 316 312 300 299 300 301 300 301 299
204 205 213 227 219 222 260 277 247 257 267 282 321 236 328 314 344 322 333 341 340 322 318 318 317 318 320 320 322 322 323 327 330 326 323 322 321 320 316 315 313 312 311 305 297 302 301 299 301
203 196 210 224 235 247 269 244 270 252 269 311 306 330 343 339 324 324 327 329 333 329 320 323 322 320 326 326 326 327 327 323 324 321 318 318 318 316 315 311 311 309 306 306 305 305 305 300 301
215 208 207 225 230 231 301 256 241 249 288 310 313 330 328 328 313 305 308 297 296 320 315 316 319 320 319 321 323 324 323 322 323 321 319 314 312 310 307 307 307 306 307 306 304 303 302 303 304
225 174 276 201 31 304 318 280 218 232 278 281 299 321 317 309 295 296 304 296 292 282 273 286 297 299 311 314 321 322 320 319 319 318 314 311 306 306 307 305 303 303 304 303 303 303 303 302 304
205 157 13 6 325 323 310 318 184 168 251 263 288 272 265 291 289 295 303 298 287 258 284 262 310 274 280 296 317 317 315 315 314 314 312 309 307 307 304 303 304 304 304 305 304 304 304 303 302
188 172 231 195 286 290 290 299 234 199 175 241 258 273 278 269 262 272 287 301 320 305 302 303 342 304 324 325 318 308 311 311 313 311 312 309 310 315 315 312 310 310 308 307 306 307 304 304 301
198 199 204 181 204 266 277 279 272 217 228 266 268 270 274 276 293 303 304 301 307 313 306 314 297 313 309 312 310 307 307 311 312 315 315 315 315 316 317 314 314 312 308 305 306 304 302 302 302
208 215 203 179 184 200 251 263 268 268 222 240 254 264 277 296 294 304 297 290 295 300 303 304 308 306 306 307 311 313 314 314 316 318 315 317 317 317 316 312 309 308 307 307 306 307 303 299 300
229 231 225 201 207 215 233 264 255 234 230 245 262 279 301 305 288 291 295 303 302 300 301 303 304 304 307 310 307 307 310 313 319 319 319 316 316 314 314 312 311 308 309 307 309 306 303 303 303
242 236 227 218 222 234 241 251 258 234 255 263 272 290 305 316 300 290 313 314 316 318 320 318 307 298 296 299 304 307 316 320 318 316 316 314 315 313 315 314 311 311 306 308 307 307 302 305 308
243 235 237 237 242 244 258 254 261 246 228 247 265 285 301 301 294 302 309 315 315 315 312 307 304 304 309 311 311 314 315 314 314 314 315 317 317 318 322 321 315 318 311 307 306 305 308 314 313
242 240 246 245 245 273 263 262 273 247 247 266 272 279 285 294 303 308 308 309 311 315 315 314 314 314 313 312 311 312 311 311 312 315 317 320 323 322 324 320 319 316 316 311 312 312 314 318 315
256 249 249 256 250 241 241 270 243 251 242 252 264 280 280 284 299 295 302 306 306 305 306 307 309 308 307 306 310 311 310 313 314 318 317 320 323 324 326 324 321 322 319 318 315 317 320 322 313
252 251 249 254 211 215 237 272 247 250 259 263 258 263 274 284 293 296 301 300 298 301 305 307 304 306 302 304 308 310 313 314 316 317 318 321 322 324 321 320 318 321 314 313 319 321 322 321 311
255 249 232 241 230 220 218 245 270 266 261 258 267 269 272 287 287 288 302 303 302 307 305 307 306 302 298 302 307 309 313 314 316 317 318 321 320 322 315 314 309 315 314 315 318 322 323 317 312
258 237 230 231 234 234 237 225 268 267 259 264 273 279 280 279 281 291 298 300 303 306 307 307 311 304 297 300 305 311 314 314 317 318 319 320 321 322 314 313 311 312 314 315 322 321 322 315 309
257 258 248 240 229 233 237 237 244 248 267 275 277 276 272 278 284 289 294 301 305 306 306 308 305 309 297 298 305 311 314 317 319 319 320 321 324 321 317 315 315 315 317 316 319 320 323 316 308